| time (UTC) | temp F | wind direction | speed MPH | gust MPH | rain 1hr in | rain 24hr in | rain mn in | humidity % | barometer mb |
| 20260906121503 | 94 | 202 | 4.0 | 8.0 | 0.00 | 0.00 | 0.00 | 38 | 1012.8 |
| 20260906121003 | 94 | 199 | 5.0 | 9.0 | 0.00 | 0.00 | 0.00 | 37 | 1012.9 |
| 20260906120503 | 94 | 183 | 4.0 | 7.0 | 0.00 | 0.00 | 0.00 | 36 | 1012.9 |
| 20260906120003 | 93 | 178 | 5.0 | 10.0 | 0.00 | 0.00 | 0.00 | 36 | 1012.9 |
| 20260906115503 | 93 | 190 | 5.0 | 11.0 | 0.00 | 0.00 | 0.00 | 37 | 1012.9 |
| 20260906115003 | 93 | 170 | 4.0 | 7.0 | 0.00 | 0.00 | 0.00 | 39 | 1013.0 |
| 20260906114503 | 93 | 166 | 4.0 | 9.0 | 0.00 | 0.00 | 0.00 | 37 | 1013.0 |
| 20260906114003 | 92 | 187 | 5.0 | 9.0 | 0.00 | 0.00 | 0.00 | 40 | 1013.1 |
| 20260906113503 | 92 | 185 | 6.0 | 9.0 | 0.00 | 0.00 | 0.00 | 39 | 1013.1 |
| 20260906113003 | 92 | 176 | 4.0 | 7.0 | 0.00 | 0.00 | 0.00 | 40 | 1013.1 |
| 20260906112503 | 92 | 185 | 4.0 | 9.0 | 0.00 | 0.00 | 0.00 | 42 | 1013.2 |
| 20260906112003 | 91 | 191 | 3.0 | 8.0 | 0.00 | 0.00 | 0.00 | 41 | 1013.1 |
| 20260906111503 | 91 | 200 | 5.0 | 9.0 | 0.00 | 0.00 | 0.00 | 40 | 1013.0 |
| 20260906111003 | 91 | 206 | 5.0 | 9.0 | 0.00 | 0.00 | 0.00 | 43 | 1013.1 |
| 20260906110503 | 91 | 213 | 5.0 | 9.0 | 0.00 | 0.00 | 0.00 | 42 | 1013.1 |
| 20260906110003 | 91 | 212 | 5.0 | 9.0 | 0.00 | 0.00 | 0.00 | 40 | 1013.1 |
| 20260906105503 | 91 | 222 | 5.0 | 8.0 | 0.00 | 0.00 | 0.00 | 40 | 1013.1 |
| 20260906105003 | 92 | 216 | 3.0 | 7.0 | 0.00 | 0.00 | 0.00 | 44 | 1013.1 |
| 20260906104503 | 90 | 216 | 4.0 | 8.0 | 0.00 | 0.00 | 0.00 | 45 | 1013.3 |
| 20260906104003 | 90 | 217 | 4.0 | 9.0 | 0.00 | 0.00 | 0.00 | 43 | 1013.3 |
| 20260906103503 | 90 | 201 | 5.0 | 11.0 | 0.00 | 0.00 | 0.00 | 42 | 1013.3 |
| 20260906103003 | 91 | 213 | 5.0 | 9.0 | 0.00 | 0.00 | 0.00 | 41 | 1013.5 |
| 20260906102503 | 91 | 208 | 4.0 | 9.0 | 0.00 | 0.00 | 0.00 | 42 | 1013.4 |
| 20260906102003 | 91 | 213 | 5.0 | 10.0 | 0.00 | 0.00 | 0.00 | 41 | 1013.2 |
| 20260906101503 | 91 | 218 | 4.0 | 9.0 | 0.00 | 0.00 | 0.00 | 41 | 1013.3 |
| 20260906101003 | 91 | 212 | 3.0 | 7.0 | 0.00 | 0.00 | 0.00 | 44 | 1013.3 |
| 20260906100503 | 90 | 213 | 4.0 | 8.0 | 0.00 | 0.00 | 0.00 | 41 | 1013.3 |
| 20260906100003 | 90 | 204 | 4.0 | 6.0 | 0.00 | 0.00 | 0.00 | 42 | 1013.4 |
| 20260906095503 | 90 | 207 | 4.0 | 8.0 | 0.00 | 0.00 | 0.00 | 43 | 1013.4 |
| 20260906095003 | 90 | 208 | 5.0 | 8.0 | 0.00 | 0.00 | 0.00 | 40 | 1013.4 |
| 20260906094503 | 91 | 202 | 4.0 | 8.0 | 0.00 | 0.00 | 0.00 | 40 | 1013.3 |
| 20260906094003 | 90 | 207 | 4.0 | 7.0 | 0.00 | 0.00 | 0.00 | 39 | 1013.3 |
| 20260906093503 | 91 | 206 | 4.0 | 7.0 | 0.00 | 0.00 | 0.00 | 39 | 1013.3 |
| 20260906093003 | 91 | 199 | 3.0 | 6.0 | 0.00 | 0.00 | 0.00 | 42 | 1013.3 |
| 20260906092503 | 91 | 212 | 2.0 | 5.0 | 0.00 | 0.00 | 0.00 | 44 | 1013.4 |
| 20260906092003 | 90 | 208 | 3.0 | 6.0 | 0.00 | 0.00 | 0.00 | 44 | 1013.4 |
| 20260906091503 | 90 | 201 | 3.0 | 7.0 | 0.00 | 0.00 | 0.00 | 45 | 1013.5 |
| 20260906091003 | 89 | 213 | 3.0 | 6.0 | 0.00 | 0.00 | 0.00 | 46 | 1013.5 |
| 20260906090503 | 89 | 195 | 3.0 | 7.0 | 0.00 | 0.00 | 0.00 | 46 | 1013.7 |
| 20260906090003 | 89 | 205 | 3.0 | 7.0 | 0.00 | 0.00 | 0.00 | 47 | 1013.5 |
| 20260906085503 | 89 | 207 | 3.0 | 7.0 | 0.00 | 0.00 | 0.00 | 49 | 1013.5 |
| 20260906085003 | 89 | 206 | 3.0 | 7.0 | 0.00 | 0.00 | 0.00 | 50 | 1013.6 |
| 20260906084503 | 89 | 206 | 2.0 | 5.0 | 0.00 | 0.00 | 0.00 | 50 | 1013.7 |
| 20260906084003 | 88 | 213 | 3.0 | 6.0 | 0.00 | 0.00 | 0.00 | 51 | 1013.6 |
| 20260906083503 | 88 | 204 | 3.0 | 5.0 | 0.00 | 0.00 | 0.00 | 51 | 1013.7 |
| 20260906083003 | 88 | 207 | 4.0 | 8.0 | 0.00 | 0.00 | 0.00 | 49 | 1013.6 |
| 20260906082503 | 89 | 206 | 3.0 | 5.0 | 0.00 | 0.00 | 0.00 | 50 | 1013.6 |
| 20260906082003 | 88 | 227 | 2.0 | 4.0 | 0.00 | 0.00 | 0.00 | 51 | 1013.6 |
| 20260906081503 | 87 | 212 | 3.0 | 6.0 | 0.00 | 0.00 | 0.00 | 52 | 1013.6 |
| 20260906081003 | 87 | 189 | 3.0 | 6.0 | 0.00 | 0.00 | 0.00 | 52 | 1013.6 |
| 20260906080503 | 87 | 199 | 3.0 | 9.0 | 0.00 | 0.00 | 0.00 | 52 | 1013.3 |
| 20260906080003 | 87 | 202 | 3.0 | 7.0 | 0.00 | 0.00 | 0.00 | 52 | 1013.4 |
| 20260906075503 | 87 | 199 | 3.0 | 6.0 | 0.00 | 0.00 | 0.00 | 51 | 1013.4 |
| 20260906075003 | 88 | 205 | 3.0 | 5.0 | 0.00 | 0.00 | 0.00 | 51 | 1013.4 |
| 20260906074503 | 88 | 220 | 3.0 | 6.0 | 0.00 | 0.00 | 0.00 | 51 | 1013.4 |
| 20260906074003 | 89 | 228 | 3.0 | 4.0 | 0.00 | 0.00 | 0.00 | 48 | 1013.2 |
| 20260906073503 | 89 | 249 | 1.0 | 2.0 | 0.00 | 0.00 | 0.00 | 46 | 1013.2 |
| 20260906073003 | 89 | 278 | 1.0 | 3.0 | 0.00 | 0.00 | 0.00 | 46 | 1013.2 |
| 20260906072503 | 88 | 212 | 1.0 | 3.0 | 0.00 | 0.00 | 0.00 | 48 | 1013.2 |
| 20260906072003 | 88 | 301 | 1.0 | 4.0 | 0.00 | 0.00 | 0.00 | 47 | 1013.1 |
| 20260906071503 | 88 | 258 | 2.0 | 3.0 | 0.00 | 0.00 | 0.00 | 47 | 1012.9 |
| 20260906071003 | 87 | 193 | 2.0 | 4.0 | 0.00 | 0.00 | 0.00 | 47 | 1012.8 |
| 20260906070503 | 87 | 334 | 2.0 | 5.0 | 0.00 | 0.00 | 0.00 | 47 | 1012.8 |
| 20260906070003 | 87 | 330 | 1.0 | 4.0 | 0.00 | 0.00 | 0.00 | 48 | 1012.8 |
| 20260906065503 | 86 | 260 | 2.0 | 4.0 | 0.00 | 0.00 | 0.00 | 49 | 1012.7 |
| 20260906065003 | 86 | 261 | 2.0 | 4.0 | 0.00 | 0.00 | 0.00 | 50 | 1012.7 |
| 20260906064503 | 86 | 279 | 1.0 | 3.0 | 0.00 | 0.00 | 0.00 | 52 | 1012.6 |
| 20260906064003 | 85 | 272 | 1.0 | 3.0 | 0.00 | 0.00 | 0.00 | 54 | 1012.6 |
| 20260906063503 | 85 | 272 | 1.0 | 3.0 | 0.00 | 0.00 | 0.00 | 55 | 1012.7 |
| 20260906063003 | 84 | 260 | 1.0 | 3.0 | 0.00 | 0.00 | 0.00 | 56 | 1012.7 |
| 20260906062503 | 83 | 255 | 1.0 | 3.0 | 0.00 | 0.00 | 0.00 | 56 | 1012.6 |
| 20260906062003 | 83 | 245 | 1.0 | 4.0 | 0.00 | 0.00 | 0.00 | 57 | 1012.5 |
| 20260906061503 | 82 | 283 | 1.0 | 4.0 | 0.00 | 0.00 | 0.00 | 57 | 1012.4 |
| 20260906061003 | 82 | 284 | 2.0 | 3.0 | 0.00 | 0.00 | 0.00 | 57 | 1012.6 |
| 20260906060503 | 82 | 276 | 1.0 | 4.0 | 0.00 | 0.00 | 0.00 | 55 | 1012.6 |
| 20260906060003 | 82 | 270 | 1.0 | 2.0 | 0.00 | 0.00 | 0.00 | 54 | 1012.6 |
| 20260906055503 | 82 | 292 | 1.0 | 4.0 | 0.00 | 0.00 | 0.00 | 52 | 1012.5 |
| 20260906055003 | 83 | 360 | 0.0 | 1.0 | 0.00 | 0.00 | 0.00 | 51 | 1012.6 |
| 20260906054503 | 82 | 0 | 0.0 | 0.0 | 0.00 | 0.00 | 0.00 | 51 | 1012.6 |
| 20260906054003 | 81 | 0 | 0.0 | 0.0 | 0.00 | 0.00 | 0.00 | 52 | 1012.4 |
| 20260906053503 | 80 | 0 | 0.0 | 0.0 | 0.00 | 0.00 | 0.00 | 53 | 1012.4 |
| 20260906053003 | 78 | 360 | 0.0 | 1.0 | 0.00 | 0.00 | 0.00 | 54 | 1012.5 |
| 20260906052503 | 78 | 360 | 0.0 | 1.0 | 0.00 | 0.00 | 0.00 | 54 | 1012.2 |
| 20260906052003 | 77 | 360 | 1.0 | 2.0 | 0.00 | 0.00 | 0.00 | 54 | 1012.2 |
| 20260906051503 | 77 | 22 | 1.0 | 2.0 | 0.00 | 0.00 | 0.00 | 55 | 1012.3 |
| 20260906051003 | 76 | 22 | 1.0 | 2.0 | 0.00 | 0.00 | 0.00 | 56 | 1012.3 |
| 20260906050503 | 75 | 0 | 0.0 | 0.0 | 0.00 | 0.00 | 0.00 | 56 | 1012.3 |
| 20260906050003 | 75 | 22 | 0.0 | 1.0 | 0.00 | 0.00 | 0.00 | 56 | 1012.2 |
| 20260906045503 | 74 | 22 | 1.0 | 2.0 | 0.00 | 0.00 | 0.00 | 56 | 1012.3 |
| 20260906045003 | 74 | 22 | 1.0 | 2.0 | 0.00 | 0.00 | 0.00 | 56 | 1012.2 |
| 20260906044503 | 74 | 22 | 0.0 | 2.0 | 0.00 | 0.00 | 0.00 | 57 | 1012.1 |
| 20260906044003 | 74 | 22 | 1.0 | 2.0 | 0.00 | 0.00 | 0.00 | 57 | 1012.2 |
| 20260906043503 | 73 | 22 | 0.0 | 1.0 | 0.00 | 0.00 | 0.00 | 57 | 1012.1 |
| 20260906043003 | 73 | 0 | 0.0 | 0.0 | 0.00 | 0.00 | 0.00 | 57 | 1012.1 |
| 20260906042503 | 73 | 22 | 0.0 | 1.0 | 0.00 | 0.00 | 0.00 | 57 | 1012.0 |
| 20260906042003 | 73 | 22 | 1.0 | 2.0 | 0.00 | 0.00 | 0.00 | 57 | 1012.0 |
| 20260906041503 | 73 | 22 | 1.0 | 2.0 | 0.00 | 0.00 | 0.00 | 57 | 1011.9 |
| 20260906041003 | 73 | 0 | 0.0 | 0.0 | 0.00 | 0.00 | 0.00 | 57 | 1011.9 |
| 20260906040503 | 73 | 0 | 0.0 | 0.0 | 0.00 | 0.00 | 0.00 | 57 | 1012.0 |
| 20260906040003 | 73 | 0 | 0.0 | 0.0 | 0.00 | 0.00 | 0.00 | 57 | 1011.9 |
| 20260906035503 | 73 | 0 | 0.0 | 0.0 | 0.00 | 0.00 | 0.00 | 57 | 1011.8 |
| 20260906035003 | 73 | 0 | 0.0 | 0.0 | 0.00 | 0.00 | 0.00 | 57 | 1011.7 |
| 20260906034503 | 73 | 0 | 0.0 | 0.0 | 0.00 | 0.00 | 0.00 | 56 | 1011.7 |
| 20260906034003 | 73 | 22 | 0.0 | 1.0 | 0.00 | 0.00 | 0.00 | 56 | 1011.8 |
| 20260906033503 | 73 | 22 | 1.0 | 2.0 | 0.00 | 0.00 | 0.00 | 56 | 1011.7 |
| 20260906033003 | 73 | 22 | 0.0 | 2.0 | 0.00 | 0.00 | 0.00 | 56 | 1011.7 |
| 20260906032503 | 74 | 0 | 0.0 | 0.0 | 0.00 | 0.00 | 0.00 | 55 | 1011.6 |
| 20260906032003 | 74 | 0 | 0.0 | 0.0 | 0.00 | 0.00 | 0.00 | 55 | 1011.7 |
| 20260906031503 | 74 | 22 | 0.0 | 2.0 | 0.00 | 0.00 | 0.00 | 55 | 1011.7 |
| 20260906031003 | 74 | 22 | 1.0 | 2.0 | 0.00 | 0.00 | 0.00 | 55 | 1011.6 |
| 20260906030003 | 74 | 22 | 1.0 | 2.0 | 0.00 | 0.00 | 0.00 | 54 | 1011.7 |
| 20260906025503 | 74 | 22 | 1.0 | 2.0 | 0.00 | 0.00 | 0.00 | 54 | 1011.6 |
| 20260906025003 | 74 | 22 | 0.0 | 1.0 | 0.00 | 0.00 | 0.00 | 54 | 1011.6 |
| 20260906024503 | 74 | 22 | 0.0 | 1.0 | 0.00 | 0.00 | 0.00 | 54 | 1011.6 |
| 20260906024003 | 74 | 22 | 0.0 | 1.0 | 0.00 | 0.00 | 0.00 | 53 | 1011.6 |
| 20260906023503 | 75 | 22 | 1.0 | 1.0 | 0.00 | 0.00 | 0.00 | 53 | 1011.7 |
| 20260906023003 | 75 | 22 | 0.0 | 2.0 | 0.00 | 0.00 | 0.00 | 53 | 1011.6 |
| 20260906022503 | 75 | 22 | 1.0 | 2.0 | 0.00 | 0.00 | 0.00 | 53 | 1011.5 |
| 20260906022003 | 75 | 22 | 1.0 | 2.0 | 0.00 | 0.00 | 0.00 | 52 | 1011.7 |
| 20260906021503 | 75 | 22 | 2.0 | 3.0 | 0.00 | 0.00 | 0.00 | 53 | 1011.7 |
| 20260906021003 | 75 | 1 | 2.0 | 3.0 | 0.00 | 0.00 | 0.00 | 53 | 1011.7 |
| 20260906020503 | 76 | 360 | 1.0 | 2.0 | 0.00 | 0.00 | 0.00 | 53 | 1011.6 |
| 20260906020003 | 76 | 360 | 1.0 | 2.0 | 0.00 | 0.00 | 0.00 | 53 | 1011.6 |
| 20260906015503 | 76 | 360 | 1.0 | 2.0 | 0.00 | 0.00 | 0.00 | 53 | 1011.6 |
| 20260906015003 | 76 | 360 | 1.0 | 2.0 | 0.00 | 0.00 | 0.00 | 53 | 1011.7 |
| 20260906014503 | 76 | 360 | 0.0 | 1.0 | 0.00 | 0.00 | 0.00 | 53 | 1011.8 |
| 20260906014003 | 76 | 360 | 0.0 | 1.0 | 0.00 | 0.00 | 0.00 | 53 | 1011.8 |
| 20260906013503 | 76 | 360 | 0.0 | 1.0 | 0.00 | 0.00 | 0.00 | 54 | 1011.8 |
| 20260906013003 | 77 | 360 | 1.0 | 1.0 | 0.00 | 0.00 | 0.00 | 54 | 1011.9 |
| 20260906012503 | 77 | 0 | 0.0 | 0.0 | 0.00 | 0.00 | 0.00 | 53 | 1011.8 |
| 20260906012003 | 77 | 0 | 0.0 | 0.0 | 0.00 | 0.00 | 0.00 | 53 | 1011.7 |
| 20260906011503 | 77 | 360 | 0.0 | 1.0 | 0.00 | 0.00 | 0.00 | 53 | 1011.8 |
| 20260906011003 | 77 | 360 | 0.0 | 2.0 | 0.00 | 0.00 | 0.00 | 53 | 1011.8 |
| 20260906010503 | 77 | 360 | 1.0 | 2.0 | 0.00 | 0.00 | 0.00 | 53 | 1011.8 |
| 20260906010003 | 77 | 360 | 1.0 | 2.0 | 0.00 | 0.00 | 0.00 | 53 | 1011.8 |
| 20260906005503 | 77 | 360 | 1.0 | 2.0 | 0.00 | 0.00 | 0.00 | 54 | 1011.8 |
| 20260906005003 | 77 | 360 | 1.0 | 1.0 | 0.00 | 0.00 | 0.00 | 54 | 1011.8 |
| 20260906004503 | 77 | 360 | 1.0 | 1.0 | 0.00 | 0.00 | 0.00 | 54 | 1011.8 |
| 20260906004003 | 77 | 360 | 1.0 | 2.0 | 0.00 | 0.00 | 0.00 | 54 | 1011.8 |
| 20260906003503 | 77 | 360 | 0.0 | 1.0 | 0.00 | 0.00 | 0.00 | 54 | 1011.7 |
| 20260906003003 | 77 | 360 | 1.0 | 2.0 | 0.00 | 0.00 | 0.00 | 54 | 1011.7 |
| 20260906002503 | 77 | 360 | 2.0 | 3.0 | 0.00 | 0.00 | 0.00 | 54 | 1011.8 |
| 20260906002003 | 77 | 1 | 2.0 | 3.0 | 0.00 | 0.00 | 0.00 | 54 | 1011.8 |
| 20260906001503 | 77 | 13 | 2.0 | 3.0 | 0.00 | 0.00 | 0.00 | 54 | 1011.8 |
| 20260906001003 | 77 | 22 | 2.0 | 3.0 | 0.00 | 0.00 | 0.00 | 54 | 1011.7 |
| 20260906000503 | 77 | 22 | 1.0 | 3.0 | 0.00 | 0.00 | 0.00 | 54 | 1011.8 |
| 20260906000003 | 77 | 22 | 1.0 | 3.0 | 0.00 | 0.00 | 0.00 | 54 | 1011.8 |
| 20260905235503 | 77 | 22 | 0.0 | 2.0 | 0.00 | 0.00 | 0.00 | 54 | 1011.8 |
| 20260905235003 | 77 | 32 | 2.0 | 3.0 | 0.00 | 0.00 | 0.00 | 54 | 1011.7 |
| 20260905234503 | 77 | 26 | 2.0 | 2.0 | 0.00 | 0.00 | 0.00 | 55 | 1011.9 |
| 20260905234003 | 77 | 22 | 1.0 | 2.0 | 0.00 | 0.00 | 0.00 | 55 | 1011.8 |
| 20260905233503 | 77 | 22 | 1.0 | 2.0 | 0.00 | 0.00 | 0.00 | 55 | 1011.9 |
| 20260905233003 | 77 | 22 | 1.0 | 2.0 | 0.00 | 0.00 | 0.00 | 55 | 1012.0 |
| 20260905232503 | 77 | 22 | 2.0 | 2.0 | 0.00 | 0.00 | 0.00 | 55 | 1011.9 |
| 20260905232003 | 77 | 22 | 1.0 | 2.0 | 0.00 | 0.00 | 0.00 | 55 | 1012.0 |
| 20260905231503 | 77 | 22 | 2.0 | 2.0 | 0.00 | 0.00 | 0.00 | 55 | 1012.0 |
| 20260905231003 | 77 | 22 | 2.0 | 2.0 | 0.00 | 0.00 | 0.00 | 55 | 1012.0 |
| 20260905230503 | 77 | 22 | 2.0 | 2.0 | 0.00 | 0.00 | 0.00 | 55 | 1012.0 |
| 20260905230003 | 77 | 22 | 1.0 | 2.0 | 0.00 | 0.00 | 0.00 | 54 | 1012.0 |
| 20260905225503 | 77 | 22 | 1.0 | 2.0 | 0.00 | 0.00 | 0.00 | 55 | 1011.9 |
| 20260905225003 | 77 | 16 | 2.0 | 3.0 | 0.00 | 0.00 | 0.00 | 54 | 1011.9 |
| 20260905224503 | 78 | 20 | 3.0 | 4.0 | 0.00 | 0.00 | 0.00 | 55 | 1012.2 |
| 20260905224003 | 78 | 17 | 3.0 | 4.0 | 0.00 | 0.00 | 0.00 | 55 | 1012.3 |
| 20260905223503 | 78 | 18 | 3.0 | 5.0 | 0.00 | 0.00 | 0.00 | 55 | 1012.2 |
| 20260905223003 | 78 | 19 | 3.0 | 4.0 | 0.00 | 0.00 | 0.00 | 55 | 1012.1 |
| 20260905222503 | 78 | 21 | 2.0 | 4.0 | 0.00 | 0.00 | 0.00 | 55 | 1012.2 |
| 20260905222003 | 78 | 17 | 2.0 | 4.0 | 0.00 | 0.00 | 0.00 | 55 | 1012.2 |
| 20260905221503 | 78 | 21 | 2.0 | 4.0 | 0.00 | 0.00 | 0.00 | 56 | 1012.1 |
| 20260905221003 | 78 | 20 | 2.0 | 4.0 | 0.00 | 0.00 | 0.00 | 56 | 1012.0 |
| 20260905220503 | 78 | 12 | 3.0 | 4.0 | 0.00 | 0.00 | 0.00 | 56 | 1012.0 |
| 20260905220003 | 78 | 10 | 2.0 | 5.0 | 0.00 | 0.00 | 0.00 | 57 | 1012.0 |
| 20260905215503 | 78 | 4 | 2.0 | 4.0 | 0.00 | 0.00 | 0.00 | 57 | 1012.1 |
| 20260905215003 | 78 | 10 | 1.0 | 3.0 | 0.00 | 0.00 | 0.00 | 57 | 1012.0 |
| 20260905214503 | 78 | 360 | 1.0 | 3.0 | 0.00 | 0.00 | 0.00 | 57 | 1011.9 |
| 20260905214003 | 78 | 9 | 2.0 | 4.0 | 0.00 | 0.00 | 0.00 | 57 | 1011.9 |
| 20260905213503 | 78 | 14 | 2.0 | 5.0 | 0.00 | 0.00 | 0.00 | 58 | 1011.9 |
| 20260905213003 | 78 | 22 | 0.0 | 2.0 | 0.00 | 0.00 | 0.00 | 58 | 1012.0 |
| 20260905212503 | 78 | 22 | 0.0 | 1.0 | 0.00 | 0.00 | 0.00 | 59 | 1011.8 |
| 20260905212003 | 79 | 22 | 1.0 | 2.0 | 0.00 | 0.00 | 0.00 | 59 | 1011.9 |
| 20260905211503 | 79 | 22 | 1.0 | 1.0 | 0.00 | 0.00 | 0.00 | 59 | 1011.9 |
| 20260905211003 | 79 | 22 | 0.0 | 2.0 | 0.00 | 0.00 | 0.00 | 59 | 1011.8 |
| 20260905210503 | 79 | 22 | 1.0 | 2.0 | 0.00 | 0.00 | 0.00 | 59 | 1012.1 |
| 20260905210003 | 79 | 22 | 1.0 | 2.0 | 0.00 | 0.00 | 0.00 | 59 | 1012.0 |
| 20260905205503 | 79 | 22 | 1.0 | 2.0 | 0.00 | 0.00 | 0.00 | 59 | 1012.2 |
| 20260905205003 | 80 | 3 | 2.0 | 3.0 | 0.00 | 0.00 | 0.00 | 60 | 1012.1 |
| 20260905204503 | 80 | 12 | 2.0 | 3.0 | 0.00 | 0.00 | 0.00 | 60 | 1012.1 |
| 20260905204003 | 80 | 0 | 0.0 | 0.0 | 0.00 | 0.00 | 0.00 | 60 | 1011.9 |
| 20260905203503 | 80 | 22 | 0.0 | 1.0 | 0.00 | 0.00 | 0.00 | 60 | 1012.1 |
| 20260905203003 | 80 | 22 | 1.0 | 2.0 | 0.00 | 0.00 | 0.00 | 60 | 1012.0 |
| 20260905202503 | 80 | 22 | 1.0 | 2.0 | 0.00 | 0.00 | 0.00 | 61 | 1012.0 |
| 20260905202003 | 80 | 24 | 2.0 | 3.0 | 0.00 | 0.00 | 0.00 | 61 | 1012.0 |
| 20260905201503 | 81 | 22 | 1.0 | 2.0 | 0.00 | 0.00 | 0.00 | 62 | 1012.2 |
| 20260905201003 | 81 | 22 | 1.0 | 2.0 | 0.00 | 0.00 | 0.00 | 62 | 1012.2 |
| 20260905200503 | 81 | 12 | 0.0 | 2.0 | 0.00 | 0.00 | 0.00 | 62 | 1012.2 |
| 20260905200004 | 81 | 0 | 0.0 | 0.0 | 0.00 | 0.00 | 0.00 | 62 | 1012.2 |
| 20260905195503 | 81 | 0 | 0.0 | 0.0 | 0.00 | 0.00 | 0.00 | 62 | 1012.4 |
| 20260905195004 | 81 | 0 | 0.0 | 0.0 | 0.00 | 0.00 | 0.00 | 62 | 1012.6 |
| 20260905194503 | 81 | 0 | 0.0 | 0.0 | 0.00 | 0.00 | 0.00 | 62 | 1012.3 |
| 20260905194003 | 81 | 0 | 0.0 | 0.0 | 0.00 | 0.00 | 0.00 | 62 | 1012.3 |
| 20260905193503 | 81 | 360 | 1.0 | 1.0 | 0.00 | 0.00 | 0.00 | 62 | 1012.3 |
| 20260905193003 | 82 | 360 | 0.0 | 1.0 | 0.00 | 0.00 | 0.00 | 62 | 1012.3 |
| 20260905192503 | 82 | 0 | 0.0 | 0.0 | 0.00 | 0.00 | 0.00 | 63 | 1012.2 |
| 20260905192003 | 82 | 360 | 0.0 | 1.0 | 0.00 | 0.00 | 0.00 | 63 | 1012.3 |
| 20260905191503 | 82 | 360 | 1.0 | 2.0 | 0.00 | 0.00 | 0.00 | 63 | 1012.3 |
| 20260905191003 | 82 | 6 | 1.0 | 2.0 | 0.00 | 0.00 | 0.00 | 63 | 1012.2 |
| 20260905190503 | 82 | 22 | 2.0 | 3.0 | 0.00 | 0.00 | 0.00 | 63 | 1012.0 |
| 20260905190003 | 82 | 22 | 0.0 | 2.0 | 0.00 | 0.00 | 0.00 | 64 | 1012.1 |
| 20260905185503 | 82 | 22 | 0.0 | 2.0 | 0.00 | 0.00 | 0.00 | 64 | 1012.1 |
| 20260905185003 | 82 | 22 | 1.0 | 2.0 | 0.00 | 0.00 | 0.00 | 64 | 1012.0 |
| 20260905184503 | 82 | 22 | 1.0 | 2.0 | 0.00 | 0.00 | 0.00 | 64 | 1011.9 |
| 20260905184003 | 83 | 22 | 1.0 | 2.0 | 0.00 | 0.00 | 0.00 | 64 | 1011.9 |
| 20260905183503 | 83 | 40 | 1.0 | 2.0 | 0.00 | 0.00 | 0.00 | 64 | 1011.7 |
| 20260905183003 | 83 | 56 | 1.0 | 1.0 | 0.00 | 0.00 | 0.00 | 64 | 1011.7 |
| 20260905182503 | 83 | 74 | 0.0 | 1.0 | 0.00 | 0.00 | 0.00 | 64 | 1011.7 |
| 20260905182003 | 83 | 135 | 0.0 | 1.0 | 0.00 | 0.00 | 0.00 | 64 | 1011.5 |
| 20260905181503 | 83 | 0 | 0.0 | 0.0 | 0.00 | 0.00 | 0.00 | 63 | 1011.6 |
| 20260905181003 | 83 | 0 | 0.0 | 0.0 | 0.00 | 0.00 | 0.00 | 64 | 1011.6 |
| 20260905180503 | 84 | 0 | 0.0 | 0.0 | 0.00 | 0.00 | 0.00 | 64 | 1011.6 |
| 20260905180003 | 84 | 0 | 0.0 | 0.0 | 0.00 | 0.00 | 0.00 | 63 | 1011.6 |
| 20260905175503 | 84 | 0 | 0.0 | 0.0 | 0.00 | 0.00 | 0.00 | 63 | 1011.3 |
| 20260905175003 | 84 | 0 | 0.0 | 0.0 | 0.00 | 0.00 | 0.00 | 63 | 1011.3 |
| 20260905174503 | 84 | 0 | 0.0 | 0.0 | 0.00 | 0.00 | 0.00 | 63 | 1011.3 |
| 20260905174003 | 84 | 0 | 0.0 | 0.0 | 0.00 | 0.00 | 0.00 | 63 | 1011.4 |
| 20260905173503 | 84 | 135 | 0.0 | 1.0 | 0.00 | 0.00 | 0.00 | 62 | 1011.1 |
| 20260905173003 | 84 | 123 | 1.0 | 2.0 | 0.00 | 0.00 | 0.00 | 62 | 1011.1 |
| 20260905172504 | 85 | 128 | 1.0 | 2.0 | 0.00 | 0.00 | 0.00 | 62 | 1011.2 |
| 20260905172003 | 85 | 125 | 1.0 | 2.0 | 0.00 | 0.00 | 0.00 | 61 | 1011.2 |
| 20260905171503 | 85 | 133 | 1.0 | 2.0 | 0.00 | 0.00 | 0.00 | 60 | 1011.3 |
| 20260905171004 | 86 | 130 | 1.0 | 2.0 | 0.00 | 0.00 | 0.00 | 60 | 1011.2 |
| 20260905170503 | 86 | 121 | 1.0 | 2.0 | 0.00 | 0.00 | 0.00 | 60 | 1011.2 |
| 20260905170003 | 86 | 141 | 1.0 | 2.0 | 0.00 | 0.00 | 0.00 | 59 | 1010.9 |
| 20260905165503 | 87 | 141 | 1.0 | 3.0 | 0.00 | 0.00 | 0.00 | 58 | 1011.1 |
| 20260905165003 | 87 | 131 | 1.0 | 2.0 | 0.00 | 0.00 | 0.00 | 58 | 1011.1 |
| 20260905164503 | 87 | 131 | 1.0 | 3.0 | 0.00 | 0.00 | 0.00 | 57 | 1010.9 |
| 20260905164003 | 87 | 140 | 1.0 | 3.0 | 0.00 | 0.00 | 0.00 | 57 | 1010.9 |
| 20260905163503 | 87 | 132 | 1.0 | 4.0 | 0.00 | 0.00 | 0.00 | 57 | 1011.0 |
| 20260905163003 | 87 | 138 | 2.0 | 5.0 | 0.00 | 0.00 | 0.00 | 57 | 1010.9 |
| 20260905162503 | 87 | 140 | 2.0 | 6.0 | 0.00 | 0.00 | 0.00 | 56 | 1010.9 |
| 20260905162003 | 87 | 136 | 3.0 | 5.0 | 0.00 | 0.00 | 0.00 | 56 | 1010.9 |
| 20260905161503 | 88 | 145 | 3.0 | 6.0 | 0.00 | 0.00 | 0.00 | 56 | 1010.9 |
| 20260905161003 | 88 | 142 | 3.0 | 6.0 | 0.00 | 0.00 | 0.00 | 56 | 1010.9 |
| 20260905160503 | 88 | 145 | 2.0 | 7.0 | 0.00 | 0.00 | 0.00 | 56 | 1010.8 |
| 20260905160003 | 88 | 146 | 3.0 | 6.0 | 0.00 | 0.00 | 0.00 | 56 | 1010.9 |
| 20260905155503 | 88 | 147 | 3.0 | 6.0 | 0.00 | 0.00 | 0.00 | 56 | 1011.0 |
| 20260905155003 | 88 | 151 | 4.0 | 8.0 | 0.00 | 0.00 | 0.00 | 56 | 1010.9 |
| 20260905154503 | 88 | 149 | 5.0 | 7.0 | 0.00 | 0.00 | 0.00 | 55 | 1011.0 |
| 20260905154003 | 88 | 150 | 4.0 | 7.0 | 0.00 | 0.00 | 0.00 | 55 | 1011.0 |
| 20260905153503 | 88 | 141 | 4.0 | 7.0 | 0.00 | 0.00 | 0.00 | 55 | 1011.1 |
| 20260905153004 | 89 | 147 | 4.0 | 9.0 | 0.00 | 0.00 | 0.00 | 55 | 1011.1 |
| 20260905152503 | 89 | 140 | 3.0 | 9.0 | 0.00 | 0.00 | 0.00 | 54 | 1010.9 |
| 20260905152003 | 89 | 136 | 4.0 | 11.0 | 0.00 | 0.00 | 0.00 | 54 | 1010.9 |
| 20260905151503 | 89 | 138 | 5.0 | 8.0 | 0.00 | 0.00 | 0.00 | 54 | 1011.0 |
| 20260905151003 | 90 | 146 | 3.0 | 8.0 | 0.00 | 0.00 | 0.00 | 51 | 1011.0 |
| 20260905150503 | 90 | 144 | 4.0 | 8.0 | 0.00 | 0.00 | 0.00 | 49 | 1011.1 |
| 20260905150003 | 91 | 161 | 3.0 | 7.0 | 0.00 | 0.00 | 0.00 | 49 | 1011.1 |
| 20260905145503 | 91 | 145 | 3.0 | 7.0 | 0.00 | 0.00 | 0.00 | 49 | 1011.2 |
| 20260905145003 | 91 | 139 | 4.0 | 9.0 | 0.00 | 0.00 | 0.00 | 49 | 1011.1 |
| 20260905144503 | 91 | 135 | 3.0 | 7.0 | 0.00 | 0.00 | 0.00 | 49 | 1011.2 |
| 20260905144003 | 91 | 150 | 3.0 | 7.0 | 0.00 | 0.00 | 0.00 | 51 | 1011.2 |
| 20260905143503 | 90 | 161 | 4.0 | 7.0 | 0.00 | 0.00 | 0.00 | 50 | 1011.2 |
| 20260905143003 | 90 | 170 | 5.0 | 10.0 | 0.00 | 0.00 | 0.00 | 49 | 1011.4 |
| 20260905142503 | 90 | 177 | 4.0 | 9.0 | 0.00 | 0.00 | 0.00 | 48 | 1011.3 |
| 20260905142003 | 90 | 155 | 4.0 | 9.0 | 0.00 | 0.00 | 0.00 | 50 | 1011.4 |
| 20260905141503 | 91 | 177 | 4.0 | 7.0 | 0.00 | 0.00 | 0.00 | 47 | 1011.3 |
| 20260905141003 | 91 | 185 | 4.0 | 8.0 | 0.00 | 0.00 | 0.00 | 49 | 1011.4 |
| 20260905140503 | 91 | 177 | 4.0 | 8.0 | 0.00 | 0.00 | 0.00 | 49 | 1011.3 |
| 20260905140004 | 90 | 180 | 5.0 | 9.0 | 0.00 | 0.00 | 0.00 | 49 | 1011.3 |
| 20260905135503 | 91 | 189 | 4.0 | 10.0 | 0.00 | 0.00 | 0.00 | 47 | 1011.5 |
| 20260905135003 | 91 | 181 | 3.0 | 7.0 | 0.00 | 0.00 | 0.00 | 48 | 1011.4 |
| 20260905134503 | 91 | 181 | 3.0 | 6.0 | 0.00 | 0.00 | 0.00 | 48 | 1011.5 |
| 20260905134003 | 91 | 175 | 4.0 | 8.0 | 0.00 | 0.00 | 0.00 | 48 | 1011.5 |
| 20260905133503 | 91 | 176 | 3.0 | 7.0 | 0.00 | 0.00 | 0.00 | 49 | 1011.6 |
| 20260905133003 | 90 | 192 | 4.0 | 7.0 | 0.00 | 0.00 | 0.00 | 49 | 1011.6 |
| 20260905132503 | 89 | 193 | 6.0 | 11.0 | 0.00 | 0.00 | 0.00 | 50 | 1011.7 |
| 20260905132003 | 90 | 179 | 4.0 | 9.0 | 0.00 | 0.00 | 0.00 | 50 | 1011.8 |
| 20260905131503 | 89 | 193 | 5.0 | 9.0 | 0.00 | 0.00 | 0.00 | 51 | 1011.8 |
| 20260905131003 | 89 | 196 | 5.0 | 11.0 | 0.00 | 0.00 | 0.00 | 52 | 1011.9 |
| 20260905130503 | 89 | 190 | 5.0 | 9.0 | 0.00 | 0.00 | 0.00 | 52 | 1012.0 |
| 20260905130003 | 89 | 190 | 6.0 | 11.0 | 0.00 | 0.00 | 0.00 | 51 | 1012.0 |
| 20260905125503 | 89 | 193 | 5.0 | 9.0 | 0.00 | 0.00 | 0.00 | 52 | 1012.0 |
| 20260905125003 | 89 | 181 | 5.0 | 11.0 | 0.00 | 0.00 | 0.00 | 51 | 1012.1 |
| 20260905124503 | 89 | 192 | 5.0 | 12.0 | 0.00 | 0.00 | 0.00 | 50 | 1012.2 |
| 20260905124003 | 89 | 195 | 6.0 | 11.0 | 0.00 | 0.00 | 0.00 | 49 | 1012.2 |
| 20260905123503 | 90 | 201 | 5.0 | 11.0 | 0.00 | 0.00 | 0.00 | 46 | 1012.2 |
| 20260905123003 | 90 | 191 | 5.0 | 10.0 | 0.00 | 0.00 | 0.00 | 49 | 1012.3 |
| 20260905122503 | 89 | 187 | 5.0 | 10.0 | 0.00 | 0.00 | 0.00 | 49 | 1012.3 |
| 20260905122003 | 89 | 191 | 5.0 | 10.0 | 0.00 | 0.00 | 0.00 | 49 | 1012.3 |